30.04.2024;13:00;97
30.04.2024;12:00;70
30.04.2024;11:00;60
30.04.2024;10:00;46
30.04.2024;09:00;22
30.04.2024;08:00;8
30.04.2024;07:00;13
30.04.2024;06:00;21
30.04.2024;05:00;27
30.04.2024;04:00;34
30.04.2024;03:00;34
30.04.2024;02:00;32
30.04.2024;01:00;37
30.04.2024;00:00;45
29.04.2024;23:00;53
29.04.2024;22:00;71
29.04.2024;21:00;89
29.04.2024;20:00;101
29.04.2024;19:00;109
29.04.2024;18:00;110
29.04.2024;17:00;108
29.04.2024;16:00;103
29.04.2024;15:00;98
29.04.2024;14:00;91
29.04.2024;13:00;84
29.04.2024;12:00;76
29.04.2024;11:00;70
29.04.2024;10:00;60
29.04.2024;09:00;47
29.04.2024;08:00;38
29.04.2024;07:00;36
29.04.2024;06:00;47
29.04.2024;05:00;56
29.04.2024;04:00;63
29.04.2024;03:00;75
29.04.2024;02:00;83
29.04.2024;01:00;88
29.04.2024;00:00;84
28.04.2024;23:00;81
28.04.2024;22:00;83
28.04.2024;21:00;97
28.04.2024;20:00;101
28.04.2024;19:00;101
28.04.2024;18:00;102
28.04.2024;17:00;99
28.04.2024;16:00;93
28.04.2024;15:00;87
28.04.2024;14:00;83
